Location: *
(46.3500°N, 10.9000°E)
Time: 22:44:54
(UTC+00:00)

ISS - Visible Passes

Search period start: 26 February 2021 00:00
Search period end: 08 March 2021 00:00
Orbit: 417 x 422 km, 51.6° (Epoch: 27 February)

Date Brightness Start Highest point End Pass type
(mag) Time Alt. Az. Time Alt. Az. Time Alt. Az.
26 Feb -0.4 03:04:46 13° E 03:04:46 13° E 03:05:14 10° ENE visible
26 Feb -3.5 04:37:44 34° W 04:38:54 54° NNW 04:42:13 10° ENE visible
27 Feb -2.9 03:52:11 49° NE 03:52:11 49° NE 03:54:47 10° ENE visible
27 Feb -2.6 05:25:29 10° WNW 05:28:34 32° N 05:31:39 10° ENE visible
28 Feb -0.6 03:06:35 15° ENE 03:06:35 15° ENE 03:07:19 10° ENE visible
28 Feb -2.8 04:39:33 24° WNW 04:40:59 36° N 04:44:08 10° ENE visible
01 Mar -2.7 03:53:54 39° N 03:53:54 39° N 03:56:38 10° ENE visible
02 Mar -0.8 03:08:13 17° NE 03:08:13 17° NE 03:09:09 10° ENE visible
02 Mar -2.5 04:41:10 18° NW 04:43:05 31° N 04:46:09 10° ENE visible
03 Mar -2.5 03:55:29 32° N 03:55:29 32° N 03:58:33 10° ENE visible
04 Mar -1.0 03:09:46 19° NE 03:09:46 19° NE 03:10:59 10° ENE visible
04 Mar -2.6 04:42:43 15° NW 04:45:09 36° N 04:48:18 10° E visible
05 Mar -2.5 03:57:01 31° NNW 03:57:31 32° N 04:00:36 10° ENE visible
06 Mar -1.3 03:11:19 22° NE 03:11:19 22° NE 03:12:55 10° ENE visible
06 Mar -3.2 04:44:17 13° WNW 04:47:06 54° NNE 04:50:24 10° E visible
07 Mar -2.8 03:58:37 34° NNW 03:59:29 42° NNE 04:02:42 10° E visible
